TimeCAT,TemperatureF,Dew PointF,Humidity,Sea Level PressureIn,VisibilityMPH,Wind Direction,Wind SpeedMPH,Gust SpeedMPH,PrecipitationIn,Events,Conditions,WindDirDegrees,DateUTC
12:00 AM,73.4,62.6,69,30.06,-9999.0,North,4.6,-,N/A,,Clear,10,2013-01-23 22:00:00
1:00 AM,69.8,60.8,73,30.06,-9999.0,Variable,1.2,-,N/A,,Clear,0,2013-01-23 23:00:00
2:00 AM,71.6,60.8,69,30.06,-9999.0,East,4.6,-,N/A,,Clear,80,2013-01-24 00:00:00
3:00 AM,69.8,62.6,78,30.06,-9999.0,South,3.5,-,N/A,,Clear,180,2013-01-24 01:00:00
4:00 AM,69.8,62.6,78,30.06,-9999.0,SE,5.8,-,N/A,,Clear,140,2013-01-24 02:00:00
5:00 AM,68.0,62.6,83,30.06,-9999.0,SE,4.6,-,N/A,,Clear,130,2013-01-24 03:00:00
6:00 AM,66.2,62.6,88,30.09,-9999.0,SE,5.8,-,N/A,,Clear,130,2013-01-24 04:00:00
8:00 AM,75.2,62.6,65,30.12,-9999.0,ENE,6.9,-,N/A,,Clear,70,2013-01-24 06:00:00
9:00 AM,78.8,62.6,57,30.12,-9999.0,ENE,8.1,-,N/A,,Clear,60,2013-01-24 07:00:00
10:00 AM,80.6,60.8,51,30.12,-9999.0,NE,6.9,-,N/A,,Clear,50,2013-01-24 08:00:00
11:00 AM,84.2,60.8,45,30.09,-9999.0,NNE,5.8,-,N/A,,Clear,20,2013-01-24 09:00:00
12:00 PM,87.8,59.0,38,30.09,-9999.0,NE,9.2,-,N/A,,Clear,40,2013-01-24 10:00:00
1:00 PM,89.6,53.6,29,30.09,-9999.0,NNE,6.9,-,N/A,,Clear,30,2013-01-24 11:00:00
2:00 PM,93.2,44.6,19,30.04,6.2,East,8.1,-,N/A,,Partly Cloudy,90,2013-01-24 12:00:00
3:00 PM,93.2,42.8,17,30.01,6.2,East,8.1,-,N/A,,Partly Cloudy,100,2013-01-24 13:00:00
4:00 PM,93.2,44.6,19,30.01,6.2,NE,3.5,-,N/A,,Partly Cloudy,40,2013-01-24 14:00:00
5:00 PM,93.2,50.0,23,29.98,6.2,NE,4.6,-,N/A,,Partly Cloudy,40,2013-01-24 15:00:00
6:00 PM,93.2,42.8,17,29.98,6.2,ENE,8.1,-,N/A,,Partly Cloudy,70,2013-01-24 16:00:00
7:00 PM,89.6,42.8,20,29.98,-9999.0,NE,2.3,-,N/A,,Clear,50,2013-01-24 17:00:00
8:00 PM,84.2,48.2,29,29.98,-9999.0,NE,4.6,-,N/A,,Clear,50,2013-01-24 18:00:00
9:00 PM,80.6,53.6,39,30.01,-9999.0,North,4.6,-,N/A,,Clear,350,2013-01-24 19:00:00
10:00 PM,75.2,57.2,53,30.01,-9999.0,NW,4.6,-,N/A,,Clear,310,2013-01-24 20:00:00